THY854 LTFM-LTAL

Flight info

Callsign THY854
Flight time 0h 51m
Altitude 39000
Route EKAWE1E/36 EKAWE UT641 ABSAX UN743 GAKSU/N0436F280 W101 INB
Aircraft A319/M-SDE3FGHIRWY/LB1

Departure

Time 2026-05-05 16:57
Airport İstanbul Airport (LTFM)

Arrival

Time 2026-05-05 17:48
Airport Kastamonu Airport (LTAL)
Time Latitude Longitude Altitude Speed Heading
2026-05-05 16:27 41.25737 28.75027 333 ft 0 kts
2026-05-05 16:47 41.25732 28.75027 333 ft 3 kts
2026-05-05 16:47 41.25706 28.75027 333 ft 3 kts
2026-05-05 16:47 41.25680 28.75027 333 ft 3 kts
2026-05-05 16:48 41.25654 28.75024 333 ft 3 kts 25°
2026-05-05 16:48 41.25640 28.74998 333 ft 3 kts 79°
2026-05-05 16:48 41.25639 28.74988 333 ft 0 kts 93°
2026-05-05 16:52 41.25635 28.75047 333 ft 9 kts 95°
2026-05-05 16:52 41.25634 28.75153 333 ft 12 kts 88°
2026-05-05 16:52 41.25655 28.75259 333 ft 16 kts 42°
2026-05-05 16:53 41.25766 28.75275 333 ft 15 kts 359°
2026-05-05 16:53 41.25875 28.75275 333 ft 16 kts 357°
2026-05-05 16:53 41.25942 28.75289 333 ft 6 kts 108°
2026-05-05 16:53 41.25957 28.75384 333 ft 15 kts 21°
2026-05-05 16:54 41.26064 28.75386 333 ft 15 kts 359°
2026-05-05 16:54 41.26172 28.75387 333 ft 14 kts
2026-05-05 16:54 41.26233 28.75442 333 ft 9 kts 85°
2026-05-05 16:54 41.26234 28.75476 333 ft 0 kts 89°
2026-05-05 16:55 41.26234 28.75480 333 ft 3 kts 89°
2026-05-05 16:55 41.26235 28.75589 333 ft 14 kts 88°
2026-05-05 16:56 41.26278 28.75670 333 ft 1 kts
2026-05-05 16:56 41.26286 28.75671 333 ft 8 kts
2026-05-05 16:56 41.26643 28.75664 334 ft 91 kts 359°
2026-05-05 16:57 41.27501 28.75649 436 ft 146 kts
2026-05-05 16:57 41.28496 28.75630 1164 ft 146 kts
2026-05-05 16:57 41.29498 28.75610 1985 ft 145 kts
2026-05-05 16:57 41.30467 28.75571 2787 ft 142 kts
2026-05-05 16:58 41.31426 28.75901 3282 ft 155 kts 39°
2026-05-05 16:58 41.32119 28.77078 3799 ft 170 kts 48°
2026-05-05 16:58 41.32996 28.78221 4300 ft 185 kts 36°
2026-05-05 16:58 41.34119 28.79270 4755 ft 207 kts 31°
2026-05-05 16:59 41.35392 28.80304 5335 ft 225 kts 28°
2026-05-05 16:59 41.36792 28.81375 5937 ft 243 kts 27°
2026-05-05 16:59 41.38398 28.82207 6688 ft 254 kts 10°
2026-05-05 16:59 41.40149 28.82318 7547 ft 257 kts 356°
2026-05-05 17:00 41.41915 28.82123 8537 ft 259 kts 355°
2026-05-05 17:00 41.43710 28.81991 9466 ft 262 kts
2026-05-05 17:00 41.45392 28.82874 10316 ft 269 kts 36°
2026-05-05 17:00 41.46635 28.84810 10977 ft 286 kts 55°
2026-05-05 17:01 41.47662 28.87162 11468 ft 304 kts 56°
2026-05-05 17:01 41.48749 28.89646 11914 ft 321 kts 56°
2026-05-05 17:01 41.49891 28.92231 12569 ft 330 kts 56°
2026-05-05 17:01 41.51066 28.94871 13411 ft 333 kts 56°
2026-05-05 17:02 41.52252 28.97522 14188 ft 337 kts 56°
2026-05-05 17:02 41.53470 29.00234 14922 ft 341 kts 56°
2026-05-05 17:02 41.54688 29.02940 15628 ft 346 kts 56°
2026-05-05 17:02 41.55919 29.05678 16318 ft 351 kts 56°
2026-05-05 17:03 41.57176 29.08473 16984 ft 355 kts 57°
2026-05-05 17:03 41.58454 29.11315 17631 ft 360 kts 57°
2026-05-05 17:03 41.59752 29.14204 18272 ft 364 kts 57°
2026-05-05 17:03 41.61055 29.17106 18909 ft 368 kts 57°
2026-05-05 17:04 41.62370 29.20040 19564 ft 372 kts 57°
2026-05-05 17:04 41.63697 29.23001 20212 ft 375 kts 57°
2026-05-05 17:04 41.65030 29.25979 20839 ft 378 kts 57°
2026-05-05 17:04 41.66384 29.29007 21456 ft 381 kts 57°
2026-05-05 17:05 41.67736 29.32032 22049 ft 383 kts 57°
2026-05-05 17:05 41.69103 29.35093 22631 ft 386 kts 57°
2026-05-05 17:05 41.70479 29.38180 23200 ft 389 kts 57°
2026-05-05 17:05 41.71862 29.41286 23735 ft 392 kts 57°
2026-05-05 17:06 41.73257 29.44421 24008 ft 393 kts 57°
2026-05-05 17:06 41.74643 29.47538 24037 ft 393 kts 57°
2026-05-05 17:06 41.76036 29.50677 24043 ft 392 kts 57°
2026-05-05 17:06 41.77423 29.53805 24045 ft 392 kts 57°
2026-05-05 17:07 41.78823 29.56965 24047 ft 392 kts 57°
2026-05-05 17:07 41.80193 29.60057 24046 ft 392 kts 57°
2026-05-05 17:07 41.81594 29.63224 24045 ft 392 kts 57°
2026-05-05 17:07 41.82971 29.66342 24044 ft 392 kts 58°
2026-05-05 17:08 41.84361 29.69505 24088 ft 395 kts 58°
2026-05-05 17:08 41.85757 29.72684 24578 ft 399 kts 58°
2026-05-05 17:08 41.87160 29.75881 25224 ft 398 kts 58°
2026-05-05 17:08 41.88549 29.79044 25768 ft 400 kts 57°
2026-05-05 17:09 41.89954 29.82244 26266 ft 403 kts 57°
2026-05-05 17:09 41.91378 29.85487 26744 ft 405 kts 57°
2026-05-05 17:09 41.92825 29.88787 27227 ft 408 kts 57°
2026-05-05 17:09 41.94245 29.92028 27689 ft 411 kts 57°
2026-05-05 17:10 41.95691 29.95332 28156 ft 413 kts 57°
2026-05-05 17:10 41.97152 29.98673 28619 ft 415 kts 57°
2026-05-05 17:10 41.98622 30.02041 29049 ft 418 kts 57°
2026-05-05 17:10 42.00070 30.05427 29454 ft 421 kts 60°
2026-05-05 17:11 42.01249 30.09040 29835 ft 427 kts 68°
2026-05-05 17:11 42.02049 30.12857 30221 ft 433 kts 75°
2026-05-05 17:11 42.02458 30.16882 30656 ft 437 kts 83°
2026-05-05 17:11 42.02447 30.20947 31153 ft 439 kts 90°
2026-05-05 17:12 42.02185 30.25026 31660 ft 438 kts 91°
2026-05-05 17:12 42.01879 30.29075 32142 ft 437 kts 92°
2026-05-05 17:12 42.01568 30.33118 32600 ft 436 kts 92°
2026-05-05 17:12 42.01262 30.37134 33052 ft 435 kts 92°
2026-05-05 17:13 42.00961 30.41153 33480 ft 434 kts 92°
2026-05-05 17:13 42.00660 30.45187 33904 ft 434 kts 91°
2026-05-05 17:13 42.00359 30.49197 34311 ft 433 kts 91°
2026-05-05 17:13 42.00061 30.53189 34677 ft 432 kts 90°
2026-05-05 17:14 41.99947 30.57224 34985 ft 429 kts 86°
2026-05-05 17:14 41.99936 30.61236 35276 ft 429 kts 86°
2026-05-05 17:14 41.99942 30.65210 35550 ft 429 kts 86°
2026-05-05 17:14 41.99945 30.69196 35778 ft 430 kts 86°
2026-05-05 17:15 41.99942 30.73232 35986 ft 430 kts 86°
2026-05-05 17:15 41.99934 30.77228 36227 ft 430 kts 86°
2026-05-05 17:15 41.99922 30.81241 36505 ft 431 kts 87°
2026-05-05 17:15 41.99908 30.85212 36795 ft 431 kts 87°
2026-05-05 17:16 41.99891 30.89230 37075 ft 431 kts 87°
2026-05-05 17:16 41.99871 30.93285 37345 ft 432 kts 87°
2026-05-05 17:16 41.99851 30.97281 37566 ft 432 kts 87°
2026-05-05 17:16 41.99829 31.01286 37781 ft 434 kts 87°
2026-05-05 17:17 41.99804 31.05383 37990 ft 434 kts 87°
2026-05-05 17:17 41.99779 31.09422 38185 ft 435 kts 87°
2026-05-05 17:17 41.99752 31.13458 38350 ft 437 kts 87°
2026-05-05 17:17 41.99723 31.17578 38520 ft 438 kts 87°
2026-05-05 17:18 41.99694 31.21627 38675 ft 439 kts 87°
2026-05-05 17:18 41.99661 31.25759 38833 ft 440 kts 87°
2026-05-05 17:18 41.99628 31.29818 38979 ft 441 kts 87°
2026-05-05 17:18 41.99594 31.33949 39004 ft 443 kts 87°
2026-05-05 17:19 41.99519 31.42229 39010 ft 444 kts 87°
2026-05-05 17:19 41.99438 31.50471 39002 ft 444 kts 87°
2026-05-05 17:20 41.99352 31.58740 39013 ft 445 kts 87°
2026-05-05 17:20 41.99258 31.67032 39016 ft 444 kts 88°
2026-05-05 17:21 41.99160 31.75289 39018 ft 445 kts 88°
2026-05-05 17:22 41.99000 31.87702 39012 ft 445 kts 88°
2026-05-05 17:22 41.98886 31.96023 39016 ft 445 kts 88°
2026-05-05 17:23 41.98768 32.04322 39008 ft 445 kts 88°
2026-05-05 17:23 41.98644 32.12557 38994 ft 446 kts 88°
2026-05-05 17:23 41.98578 32.16744 38752 ft 444 kts 88°
2026-05-05 17:24 41.98510 32.20873 38497 ft 442 kts 88°
2026-05-05 17:24 41.98443 32.24934 38263 ft 439 kts 88°
2026-05-05 17:24 41.98373 32.29040 38084 ft 436 kts 88°
2026-05-05 17:24 41.98304 32.33075 37863 ft 434 kts 88°
2026-05-05 17:25 41.98234 32.37111 37637 ft 433 kts 88°
2026-05-05 17:25 41.98186 32.39803 37502 ft 433 kts 87°
2026-05-05 17:25 41.98090 32.45172 37202 ft 432 kts 87°
2026-05-05 17:25 41.98016 32.49195 36977 ft 431 kts 87°
2026-05-05 17:26 41.97940 32.53211 36757 ft 431 kts 87°
2026-05-05 17:26 41.97864 32.57181 36518 ft 431 kts 87°
2026-05-05 17:26 41.97786 32.61215 36186 ft 431 kts 87°
2026-05-05 17:26 41.97706 32.65249 35725 ft 433 kts 87°
2026-05-05 17:27 41.97623 32.69262 35114 ft 436 kts 87°
2026-05-05 17:27 41.97538 32.73303 34477 ft 439 kts 86°
2026-05-05 17:27 41.97453 32.77423 33800 ft 443 kts 86°
2026-05-05 17:27 41.97368 32.81562 33092 ft 446 kts 86°
2026-05-05 17:28 41.97279 32.85690 32349 ft 447 kts 86°
2026-05-05 17:28 41.97188 32.89853 31641 ft 447 kts 86°
2026-05-05 17:28 41.97095 32.94008 30903 ft 446 kts 86°
2026-05-05 17:28 41.97000 32.98146 30097 ft 445 kts 86°
2026-05-05 17:29 41.96905 33.02271 29517 ft 439 kts 86°
2026-05-05 17:29 41.96808 33.06319 29031 ft 431 kts 86°
2026-05-05 17:29 41.96713 33.10282 28536 ft 424 kts 86°
2026-05-05 17:29 41.96619 33.14191 28049 ft 418 kts 86°
2026-05-05 17:30 41.96526 33.18046 27554 ft 413 kts 86°
2026-05-05 17:30 41.96432 33.21872 27052 ft 408 kts 86°
2026-05-05 17:30 41.96339 33.25633 26558 ft 403 kts 86°
2026-05-05 17:30 41.96246 33.29361 26055 ft 399 kts 86°
2026-05-05 17:31 41.96153 33.33037 25584 ft 394 kts 86°
2026-05-05 17:31 41.96057 33.36684 25110 ft 389 kts 86°
2026-05-05 17:31 41.95964 33.40276 24641 ft 385 kts 86°
2026-05-05 17:31 41.95869 33.43849 24164 ft 382 kts 86°
2026-05-05 17:32 41.95776 33.47362 23693 ft 379 kts 86°
2026-05-05 17:32 41.95681 33.50870 23240 ft 376 kts 86°
2026-05-05 17:32 41.95586 33.54368 22780 ft 374 kts 87°
2026-05-05 17:32 41.95490 33.57802 22338 ft 371 kts 87°
2026-05-05 17:33 41.95392 33.61254 21883 ft 370 kts 88°
2026-05-05 17:33 41.94965 33.64688 21403 ft 376 kts 104°
2026-05-05 17:33 41.93722 33.67763 20940 ft 384 kts 125°
2026-05-05 17:33 41.91746 33.70183 20485 ft 389 kts 145°
2026-05-05 17:34 41.89254 33.71598 20030 ft 392 kts 166°
2026-05-05 17:34 41.86552 33.72121 19592 ft 392 kts 173°
2026-05-05 17:34 41.83873 33.72471 19148 ft 391 kts 174°
2026-05-05 17:34 41.81167 33.72827 18688 ft 389 kts 173°
2026-05-05 17:35 41.78471 33.73218 18235 ft 388 kts 173°
2026-05-05 17:35 41.75810 33.73627 17779 ft 386 kts 172°
2026-05-05 17:35 41.73151 33.74044 17332 ft 384 kts 172°
2026-05-05 17:35 41.70503 33.74462 16893 ft 382 kts 172°
2026-05-05 17:36 41.67862 33.74876 16440 ft 380 kts 173°
2026-05-05 17:36 41.65264 33.75284 15993 ft 378 kts 173°
2026-05-05 17:36 41.62651 33.75693 15527 ft 376 kts 173°
2026-05-05 17:36 41.60072 33.76097 15072 ft 374 kts 173°
2026-05-05 17:37 41.57499 33.76498 14627 ft 371 kts 173°
2026-05-05 17:37 41.54918 33.76899 14153 ft 369 kts 173°
2026-05-05 17:37 41.52399 33.77291 13692 ft 366 kts 173°
2026-05-05 17:37 41.49850 33.77688 13225 ft 364 kts 173°
2026-05-05 17:38 41.47349 33.78077 12759 ft 361 kts 173°
2026-05-05 17:38 41.44878 33.78462 12311 ft 359 kts 173°
2026-05-05 17:38 41.42411 33.78845 11856 ft 357 kts 173°
2026-05-05 17:38 41.39951 33.79297 11381 ft 355 kts 167°
2026-05-05 17:39 41.37759 33.80689 10891 ft 352 kts 141°
2026-05-05 17:39 41.36229 33.83168 10438 ft 348 kts 116°
2026-05-05 17:39 41.35598 33.86203 10283 ft 334 kts 93°
2026-05-05 17:39 41.35860 33.89173 10165 ft 320 kts 71°
2026-05-05 17:40 41.36877 33.91701 10059 ft 307 kts 50°
2026-05-05 17:40 41.38443 33.93535 9815 ft 299 kts 30°
2026-05-05 17:40 41.40361 33.94511 9567 ft 293 kts 10°
2026-05-05 17:40 41.42365 33.94561 9314 ft 288 kts 351°
2026-05-05 17:41 41.44254 33.93725 9070 ft 283 kts 332°
2026-05-05 17:41 41.45814 33.92216 8850 ft 277 kts 320°
2026-05-05 17:41 41.47326 33.90666 8729 ft 268 kts 329°
2026-05-05 17:41 41.48988 33.89706 8652 ft 257 kts 346°
2026-05-05 17:42 41.50747 33.89481 8588 ft 247 kts
2026-05-05 17:42 41.52446 33.89650 8344 ft 244 kts
2026-05-05 17:42 41.54089 33.89262 8062 ft 241 kts 332°
2026-05-05 17:42 41.55248 33.87707 7795 ft 239 kts 293°
2026-05-05 17:43 41.55439 33.85584 7610 ft 236 kts 257°
2026-05-05 17:43 41.54650 33.83723 7422 ft 232 kts 221°
2026-05-05 17:43 41.53253 33.82778 7312 ft 225 kts 193°
2026-05-05 17:43 41.51724 33.82499 7276 ft 212 kts 185°
2026-05-05 17:44 41.50279 33.82377 7019 ft 209 kts 184°
2026-05-05 17:44 41.48838 33.82227 6724 ft 207 kts 186°
2026-05-05 17:44 41.47444 33.82040 6436 ft 198 kts 187°
2026-05-05 17:44 41.46104 33.81837 6158 ft 187 kts 187°
2026-05-05 17:45 41.44852 33.81641 5935 ft 175 kts 187°
2026-05-05 17:45 41.43682 33.81457 5688 ft 162 kts 187°
2026-05-05 17:45 41.42596 33.81289 5460 ft 155 kts 186°
2026-05-05 17:45 41.41525 33.81124 5252 ft 154 kts 186°
2026-05-05 17:46 41.40463 33.80959 5051 ft 153 kts 186°
2026-05-05 17:46 41.39402 33.80797 4846 ft 153 kts 186°
2026-05-05 17:46 41.38356 33.80637 4646 ft 152 kts 186°
2026-05-05 17:46 41.37297 33.80476 4442 ft 151 kts 186°
2026-05-05 17:47 41.36259 33.80317 4242 ft 151 kts 185°
2026-05-05 17:47 41.35208 33.80158 4039 ft 151 kts 185°
2026-05-05 17:47 41.34173 33.80000 3838 ft 150 kts 185°
2026-05-05 17:47 41.33121 33.79863 3655 ft 150 kts 184°
2026-05-05 17:48 41.32091 33.79716 3470 ft 149 kts 185°
2026-05-05 17:48 41.31309 33.79596 3490 ft 69 kts 187°
2026-05-05 17:48 41.30965 33.79544 3501 ft 44 kts 188°
2026-05-05 17:48 41.30680 33.79496 3513 ft 34 kts 187°
2026-05-05 17:49 41.30521 33.79416 3519 ft 14 kts 202°
2026-05-05 17:49 41.30522 33.79475 3517 ft 16 kts 11°
2026-05-05 17:49 41.30679 33.79494 3513 ft 24 kts
2026-05-05 17:49 41.30845 33.79524 3507 ft 23 kts
2026-05-05 17:50 41.31018 33.79548 3500 ft 26 kts
2026-05-05 17:50 41.31206 33.79576 3494 ft 28 kts
2026-05-05 17:50 41.31409 33.79607 3486 ft 28 kts
2026-05-05 17:50 41.31600 33.79635 3481 ft 25 kts
2026-05-05 17:51 41.31708 33.79686 3479 ft 12 kts 63°
2026-05-05 17:51 41.31708 33.79808 3477 ft 13 kts 97°
2026-05-05 17:51 41.31725 33.79911 3471 ft 11 kts 72°
2026-05-05 17:51 41.31725 33.79946 3469 ft 0 kts 98°
2026-05-05 17:54 41.31725 33.79947 3470 ft 0 kts 98°